Latest Coastal Weather Observations for Swan Island

IDT60701

Issued at 3:05 pm EDT Wednesday 26 November 2014 (issued every 10 minutes, with the page automatically refreshed every 10 minutes)

About coastal observations | Map of coastal stations | Coastal observations for TAS | Marine services | Other Formats
Station Details ID: 092123 Name: SWAN ISLAND Lat: -40.73 Lon: 148.12 Height: 15.0 m
Data from the previous 72 hours. | See also: Recent months at Swan Island
Date/Time
EDT
Temp

°C
Wind Pressure Rain
since 9am
mm
Weather Cloud Vis
km
Sea
Height
m
Swell
Dir
 
Speed
knots
Gust
knots
hPa Trend Height
m
Period
s
Dir
26/03:00pm 17.5 WNW 17 26 1015.1 - 0.0 - - - - - - -
26/02:30pm 17.9 WNW 18 27 1015.0 - 0.0 - - - - - - -
26/02:07pm 17.0 WNW 18 28 1014.8 - 0.0 - - - - - - -
26/02:00pm 17.6 WNW 17 25 1014.8 - 0.0 - - - - - - -
26/01:50pm 17.6 WNW 18 28 1014.9 - 0.0 - - - - - - -
26/01:30pm 17.7 WNW 18 27 1014.8 - 0.0 - - - - - - -
26/01:15pm 17.5 W 17 28 1014.8 - 0.0 - - - - - - -
26/01:00pm 18.0 W 19 28 1014.9 - 0.0 - - - - - - -
26/12:53pm 17.3 W 19 29 1014.8 - 0.0 - - - - - - -
26/12:30pm 17.3 W 22 30 1014.6 - 0.0 - - - - - - -
26/12:00pm 16.8 W 23 31 1014.6 - 0.0 - - - - - - -
26/11:37am 16.8 W 21 32 1014.5 - 0.0 - - - - - - -
26/11:30am 17.3 W 21 28 1014.6 - 0.0 - - - - - - -
26/11:00am 16.5 W 20 29 1014.9 - 0.0 - - - - - - -
26/10:59am 16.7 W 20 30 1014.8 - 0.0 - - - - - - -
26/10:30am 16.4 W 22 29 1014.7 - 0.0 - - - - - - -
26/10:07am 16.7 W 18 28 1014.3 - 0.0 - - - - - - -
26/10:00am 16.6 W 17 25 1014.3 - 0.0 - - - - - - -
26/09:30am 16.1 W 19 31 1014.4 - 0.0 - - - - - - -
26/09:01am 15.6 WNW 21 32 1014.0 - 0.0 - - - - - - -
26/09:00am 15.6 WNW 22 32 1014.0 - 0.0 - - - - - - -
26/08:52am 15.4 WNW 21 31 1013.9 - 0.0 - - - - - - -
26/08:30am 15.4 WNW 20 28 1013.9 - 0.0 - - - - - - -
26/08:00am 14.8 WNW 22 32 1013.8 - 0.0 - - - - - - -
26/07:33am 14.3 WNW 20 30 1013.7 - 0.0 - - - - - - -
26/07:30am 14.2 WNW 21 30 1013.7 - 0.0 - - - - - - -
26/07:00am 14.3 WNW 19 30 1013.5 - 0.0 - - - - - - -
26/06:31am 13.8 WNW 23 34 1013.2 - 0.0 - - - - - - -
26/06:30am 13.8 WNW 24 34 1013.1 - 0.0 - - - - - - -
26/06:12am 13.8 WNW 22 32 1013.0 - 0.0 - - - - - - -
26/06:00am 13.7 WNW 24 31 1012.9 - 0.0 - - - - - - -
26/05:40am 13.6 WNW 24 35 1012.5 - 0.0 - - - - - - -
26/05:30am 13.6 WNW 23 33 1012.7 - 0.0 - - - - - - -
26/05:02am 13.4 WNW 23 34 1012.7 - 0.0 - - - - - - -
26/05:00am 13.4 WNW 23 31 1012.7 - 0.0 - - - - - - -
26/04:35am 13.6 WNW 21 32 1012.7 - 0.0 - - - - - - -
26/04:30am 13.7 WNW 21 29 1012.8 - 0.0 - - - - - - -
26/04:02am 13.9 WNW 21 32 1012.9 - 0.0 - - - - - - -
26/04:00am 13.9 WNW 22 32 1012.9 - 0.0 - - - - - - -
26/03:33am 13.7 WNW 20 32 1013.0 - 0.0 - - - - - - -
26/03:30am 13.8 WNW 19 28 1013.1 - 0.0 - - - - - - -
26/03:10am 13.4 WNW 21 32 1013.2 - 0.0 - - - - - - -
26/03:00am 13.5 WNW 21 29 1013.2 - 0.0 - - - - - - -
26/02:30am 13.5 WNW 21 31 1013.5 - 0.0 - - - - - - -
26/02:22am 13.5 WNW 19 31 1013.6 - 0.0 - - - - - - -
26/02:00am 13.5 WNW 18 28 1013.9 - 0.0 - - - - - - -
26/01:30am 13.3 WNW 18 29 1014.2 - 0.0 - - - - - - -
26/01:25am 13.3 WNW 17 29 1014.2 - 0.0 - - - - - - -
26/01:00am 13.2 WNW 18 26 1014.5 - 0.0 - - - - - - -
26/12:38am 13.1 W 19 30 1014.8 - 0.0 - - - - - - -
26/12:30am 13.1 W 18 28 1014.7 - 0.0 - - - - - - -
26/12:19am 13.2 W 19 29 1014.7 - 0.0 - - - - - - -
26/12:00am 13.1 W 20 30 1014.7 - 0.0 - - - - - - -
 
Date/Time
EDT
Temp

°C
Wind Pressure Rain
since 9am
mm
Weather Cloud Vis
km
Sea
Height
m
Swell
Dir
 
Speed
knots
Gust
knots
hPa Trend Height
m
Period
s
Dir
25/11:31pm 13.2 W 23 33 1014.7 - 0.0 - - - - - - -
25/11:30pm 13.2 W 24 33 1014.6 - 0.0 - - - - - - -
25/11:08pm 13.3 W 20 31 1014.7 - 0.0 - - - - - - -
25/11:00pm 13.3 W 19 28 1014.7 - 0.0 - - - - - - -
25/10:30pm 13.3 W 20 30 1014.7 - 0.0 - - - - - - -
25/10:03pm 13.5 WNW 19 30 1014.6 - 0.0 - - - - - - -
25/10:00pm 13.4 WNW 19 28 1014.6 - 0.0 - - - - - - -
25/09:30pm 13.6 WNW 20 32 1014.4 - 0.0 - - - - - - -
25/09:05pm 13.7 W 21 31 1014.3 - 0.0 - - - - - - -
25/09:00pm 13.7 W 23 32 1014.2 - 0.0 - - - - - - -
25/08:39pm 13.7 W 21 31 1013.8 - 0.0 - - - - - - -
25/08:30pm 13.9 WNW 21 29 1013.8 - 0.0 - - - - - - -
25/08:02pm 14.0 WNW 21 31 1013.3 - 0.0 - - - - - - -
25/08:00pm 14.0 WNW 22 31 1013.3 - 0.0 - - - - - - -
25/07:30pm 14.2 WNW 19 30 1013.0 - 0.0 - - - - - - -
25/07:02pm 14.4 WNW 23 34 1012.4 - 0.0 - - - - - - -
25/07:00pm 14.7 WNW 22 32 1012.5 - 0.0 - - - - - - -
25/06:31pm 15.0 WNW 24 35 1012.1 - 0.0 - - - - - - -
25/06:30pm 14.9 WNW 25 35 1012.0 - 0.0 - - - - - - -
25/06:14pm 15.2 WNW 24 34 1011.6 - 0.0 - - - - - - -
25/06:00pm 15.1 WNW 25 33 1011.6 - 0.0 - - - - - - -
25/05:30pm 15.5 WNW 24 36 1011.8 - 0.0 - - - - - - -
25/05:00pm 15.8 WNW 24 35 1011.6 - 0.0 - - - - - - -
25/04:30pm 16.2 WNW 22 34 1011.5 - 0.0 - - - - - - -
25/04:00pm 16.2 WNW 25 35 1011.1 - 0.0 - - - - - - -
25/03:33pm 16.3 WNW 26 37 1011.1 - 0.0 - - - - - - -
25/03:30pm 16.1 WNW 27 37 1011.0 - 0.0 - - - - - - -
25/03:02pm 16.6 WNW 27 38 1010.6 - 0.0 - - - - - - -
25/03:00pm 16.4 WNW 27 36 1010.6 - 0.0 - - - - - - -
25/02:30pm 17.3 WNW 22 33 1010.4 - 0.0 - - - - - - -
25/02:00pm 17.0 WNW 23 34 1010.3 - 0.0 - - - - - - -
25/01:34pm 16.8 WNW 23 33 1010.5 - 0.0 - - - - - - -
25/01:30pm 16.8 WNW 24 33 1010.5 - 0.0 - - - - - - -
25/01:04pm 16.3 WNW 26 36 1009.7 - 0.0 - - - - - - -
25/01:00pm 16.5 WNW 24 34 1009.7 - 0.0 - - - - - - -
25/12:30pm 16.6 WNW 21 33 1010.0 - 0.0 - - - - - - -
25/12:00pm 17.1 W 20 32 1009.5 - 0.0 - - - - - - -
25/11:30am 16.2 W 23 35 1009.1 - 0.0 - - - - - - -
25/11:00am 16.1 W 23 35 1008.9 - 0.0 - - - - - - -
25/10:42am 16.1 W 26 36 1008.9 - 0.0 - - - - - - -
25/10:30am 16.0 W 26 35 1009.0 - 0.0 - - - - - - -
25/10:07am 15.7 W 23 34 1008.6 - 0.0 - - - - - - -
25/10:00am 15.9 W 23 32 1008.6 - 0.0 - - - - - - -
25/09:30am 15.3 W 25 35 1008.2 - 0.0 - - - - - - -
25/09:01am 15.0 W 23 34 1007.9 - 0.0 - - - - - - -
25/09:00am 15.0 W 23 33 1007.9 - 6.6 - - - - - - -
25/08:37am 14.7 W 22 32 1007.6 - 6.6 - - - - - - -
25/08:30am 14.5 W 23 33 1007.5 - 6.6 - - - - - - -
25/08:01am 14.2 W 25 36 1007.0 - 6.6 - - - - - - -
25/08:00am 14.4 W 25 34 1007.1 - 6.6 - - - - - - -
25/07:30am 13.8 WNW 22 36 1006.4 - 6.6 - - - - - - -
25/07:00am 13.3 W 23 33 1006.3 - 6.6 - - - - - - -
25/06:30am 13.1 W 21 35 1005.7 - 6.6 - - - - - - -
25/06:00am 12.9 W 23 37 1005.0 - 6.6 - - - - - - -
25/05:30am 13.0 W 28 39 1004.5 - 6.6 - - - - - - -
25/05:00am 12.9 W 27 39 1004.0 - 6.6 - - - - - - -
25/04:30am 12.8 W 27 37 1004.1 - 6.6 - - - - - - -
25/04:02am 13.1 W 26 36 1004.1 - 6.6 - - - - - - -
25/04:00am 13.1 W 27 36 1004.1 - 6.6 - - - - - - -
25/03:30am 13.2 W 25 37 1004.4 - 6.6 - - - - - - -
25/03:07am 12.9 W 27 38 1004.4 - 6.6 - - - - - - -
25/03:00am 12.9 W 29 38 1004.5 - 6.6 - - - - - - -
25/02:30am 12.8 W 24 36 1004.7 - 6.6 - - - - - - -
25/02:00am 12.8 W 25 36 1005.0 - 6.6 - - - - - - -
25/01:48am 12.9 W 25 36 1005.0 - 6.6 - - - - - - -
25/01:30am 12.8 W 25 34 1005.1 - 6.6 - - - - - - -
25/01:10am 12.8 W 25 35 1005.2 - 6.6 - - - - - - -
25/01:00am 12.7 W 25 33 1005.0 - 6.6 - - - - - - -
25/12:45am 12.8 W 22 33 1005.3 - 6.6 - - - - - - -
25/12:30am 12.8 W 21 28 1005.7 - 6.6 - - - - - - -
25/12:00am 13.2 W 20 30 1005.8 - 6.6 - - - - - - -
 
Date/Time
EDT
Temp

°C
Wind Pressure Rain
since 9am
mm
Weather Cloud Vis
km
Sea
Height
m
Swell
Dir
 
Speed
knots
Gust
knots
hPa Trend Height
m
Period
s
Dir
24/11:30pm 13.3 W 26 37 1005.4 - 6.6 - - - - - - -
24/11:01pm 13.4 W 26 36 1004.8 - 6.6 - - - - - - -
24/11:00pm 13.4 W 26 35 1004.8 - 6.6 - - - - - - -
24/10:35pm 13.1 W 17 29 1005.1 - 6.6 - - - - - - -
24/10:30pm 13.6 W 17 26 1005.1 - 6.6 - - - - - - -
24/10:17pm 13.7 WNW 18 29 1005.1 - 6.6 - - - - - - -
24/10:00pm 13.9 WNW 17 25 1005.0 - 6.6 - - - - - - -
24/09:30pm 14.4 WNW 12 17 1004.4 - 6.6 - - - - - - -
24/09:00pm 14.5 W 12 17 1003.9 - 6.6 - - - - - - -
24/08:30pm 14.9 WNW 16 25 1003.7 - 6.6 - - - - - - -
24/08:00pm 15.2 NW 17 24 1003.3 - 6.6 - - - - - - -
24/07:30pm 15.3 NW 17 22 1003.1 - 6.6 - - - - - - -
24/07:00pm 15.6 NNW 21 25 1003.0 - 6.6 - - - - - - -
24/06:30pm 15.9 NW 21 26 1002.8 - 6.6 - - - - - - -
24/06:00pm 16.0 NNW 21 27 1002.8 - 6.6 Recent precip. - - - - - -
24/05:30pm 15.5 N 13 19 1002.7 - 6.6 - - - - - - -
24/05:00pm 14.5 N 17 20 1003.3 - 6.2 - - - - - - -
24/04:30pm 14.3 N 20 25 1003.5 - 4.8 - - - - - - -
24/04:00pm 14.4 NNE 15 22 1003.5 - 4.2 - - - - - - -
24/03:30pm 14.4 NNE 15 21 1004.0 - 4.2 - - - - - - -
24/03:00pm 14.5 NNE 14 20 1004.8 - 4.2 Recent precip. - - - - - -
24/02:30pm 14.6 N 10 14 1006.4 - 4.0 - - - - - - -
24/02:00pm 14.4 NNE 8 10 1007.0 - 3.0 - - - - - - -
24/01:30pm 14.4 NNE 9 12 1007.9 - 2.8 - - - - - - -
24/01:00pm 14.6 N 11 14 1008.6 - 2.2 - - - - - - -
24/12:30pm 14.8 NNE 11 15 1008.2 - 2.0 - - - - - - -
24/12:00pm 14.3 NE 7 8 1008.6 - 1.2 Rain - - - - - -
24/11:30am 14.3 NW 5 8 1010.4 - 0.6 - - - - - - -
24/11:00am 15.5 W 7 8 1010.5 - 0.0 - - - - - - -
24/10:30am 16.0 NE 1 2 1009.6 - 0.0 - - - - - - -
24/10:00am 16.3 ENE 2 3 1009.3 - 0.0 - - - - - - -
24/09:30am 15.1 S 4 6 1009.6 - 0.0 - - - - - - -
24/09:00am 14.9 W 2 4 1010.7 - 0.6 Rain - - - - - -
24/08:30am 14.8 WSW 3 6 1010.8 - 0.4 - - - - - - -
24/08:00am 15.1 W 3 5 1010.7 - 0.2 - - - - - - -
24/07:30am 14.6 W 3 5 1010.5 - 0.2 - - - - - - -
24/07:00am 14.6 W 5 9 1011.2 - 0.0 - - - - - - -
24/06:30am 14.5 WNW 8 12 1011.3 - 0.0 - - - - - - -
24/06:00am 14.5 NW 8 10 1011.0 - 0.0 - - - - - - -
24/05:30am 14.4 WNW 8 11 1011.0 - 0.0 - - - - - - -
24/05:00am 14.4 WNW 12 15 1011.0 - 0.0 - - - - - - -
24/04:30am 14.6 NW 12 16 1011.0 - 0.0 - - - - - - -
24/04:00am 14.4 NW 11 14 1011.0 - 0.0 - - - - - - -
24/03:30am 14.6 NW 12 16 1011.1 - 0.0 - - - - - - -
24/03:00am 14.8 NW 14 17 1011.4 - 0.0 - - - - - - -
24/02:30am 14.8 NW 15 18 1011.5 - 0.0 - - - - - - -
24/02:00am 14.9 NW 14 18 1011.6 - 0.0 - - - - - - -
24/01:30am 15.1 NNW 16 18 1011.9 - 0.0 - - - - - - -
24/01:00am 15.1 NW 14 17 1012.3 - 0.0 - - - - - - -
24/12:30am 15.2 NNW 12 14 1012.2 - 0.0 - - - - - - -
24/12:00am 15.2 NW 11 13 1012.4 - 0.0 - - - - - - -
 
Date/Time
EDT
Temp

°C
Wind Pressure Rain
since 9am
mm
Weather Cloud Vis
km
Sea
Height
m
Swell
Dir
 
Speed
knots
Gust
knots
hPa Trend Height
m
Period
s
Dir
23/11:30pm 15.1 NW 10 13 1012.5 - 0.0 - - - - - - -
23/11:00pm 15.1 NW 9 14 1012.6 - 0.0 - - - - - - -
23/10:30pm 15.0 WNW 8 13 1012.6 - 0.0 - - - - - - -
23/10:00pm 14.9 W 9 13 1012.4 - 0.0 - - - - - - -
23/09:30pm 15.0 W 10 14 1012.1 - 0.0 - - - - - - -
23/09:00pm 15.0 W 13 17 1011.8 - 0.0 - - - - - - -
23/08:30pm 15.0 W 12 17 1011.7 - 0.0 - - - - - - -
23/08:00pm 15.1 WNW 12 18 1011.5 - 0.0 - - - - - - -
23/07:30pm 15.2 WNW 13 18 1011.3 - 0.0 - - - - - - -
23/07:00pm 15.4 WNW 14 20 1011.3 - 0.0 - - - - - - -
23/06:30pm 15.5 WNW 15 20 1011.1 - 0.0 - - - - - - -
23/06:00pm 15.9 NW 15 20 1010.8 - 0.0 - - - - - - -
23/05:30pm 16.6 NW 18 22 1010.7 - 0.0 - - - - - - -
23/05:00pm 16.7 WNW 17 23 1010.4 - 0.0 - - - - - - -
23/04:30pm 17.2 WNW 15 21 1010.3 - 0.0 - - - - - - -
23/04:00pm 18.0 WNW 14 20 1010.0 - 0.0 - - - - - - -
23/03:30pm 18.5 WNW 13 19 1009.9 - 0.0 - - - - - - -

Other Formats:

Comma delimited format used in spreadsheet applications
http://www.bom.gov.au/fwo/IDT60701/IDT60701.95985.axf

JavaScript Object Notation format (JSON) in row-major order
http://www.bom.gov.au/fwo/IDT60701/IDT60701.95985.json